Location: *
(17.3280°S, 114.7300°W)
Time: 07:36:49
(UTC+00:00)

SL-08 ROCKET BODY - Pass Details

Date: 05 August 2020
Orbit: 896 x 964 km, 82.9° (Epoch: 20 September)

Event Time Altitude Azimuth Distance (km) Brightness Sun altitude
Rises 12:48:55 0° 348° (NNW) 3,535 7.4 -17.9°
Reaches altitude 10° 12:51:25 10° 344° (NNW) 2,590 6.7 -17.3°
Maximum altitude 12:57:12 59° 265° (W) 1,036 4.3 -15.9°
Drops below altitude 10° 13:02:59 10° 186° (S) 2,585 6.5 -14.6°
Sets 13:05:29 0° 182° (S) 3,528 7.3 -14.0°
